QFA51 YSSY-YBBN

Flight info

Callsign QFA51
Flight time N/A
Altitude 41000
Route OLSEM Y193 BANDA H252 GOMOL
Aircraft A332/H-SDE3GHIJ2J3J5M1RVWXY/LB2D1

Departure

Time N/A
Airport Sydney Kingsford Smith International Airport (YSSY)

Arrival

Time 2026-05-06 20:23
Airport Brisbane International Airport (YBBN)
Time Latitude Longitude Altitude Speed Heading
2026-05-06 20:23 -27.37066 153.11718 28 ft 3 kts 207°
2026-05-06 20:23 -27.37101 153.11697 27 ft 8 kts 208°
2026-05-06 20:23 -27.37163 153.11660 30 ft 12 kts 207°
2026-05-06 20:24 -27.37250 153.11614 30 ft 15 kts 198°
2026-05-06 20:24 -27.37332 153.11644 31 ft 12 kts 136°
2026-05-06 20:24 -27.37379 153.11731 29 ft 15 kts 118°
2026-05-06 20:24 -27.37433 153.11847 31 ft 19 kts 117°
2026-05-06 20:25 -27.37497 153.11989 28 ft 23 kts 117°
2026-05-06 20:25 -27.37574 153.12159 29 ft 26 kts 116°
2026-05-06 20:25 -27.37658 153.12321 31 ft 14 kts 142°
2026-05-06 20:25 -27.37712 153.12327 28 ft 7 kts 185°
2026-05-06 20:26 -27.37754 153.12347 28 ft 6 kts 139°
2026-05-06 20:26 -27.37779 153.12389 28 ft 9 kts 123°
2026-05-06 20:26 -27.37807 153.12454 29 ft 11 kts 115°
2026-05-06 20:26 -27.37847 153.12508 30 ft 5 kts 157°
2026-05-06 20:27 -27.37876 153.12506 29 ft 6 kts 195°
2026-05-06 20:27 -27.37925 153.12501 28 ft 5 kts 154°
2026-05-06 20:27 -27.37962 153.12560 30 ft 15 kts 120°
2026-05-06 20:27 -27.38020 153.12657 29 ft 11 kts 127°
2026-05-06 20:28 -27.38082 153.12703 28 ft 10 kts 181°
2026-05-06 20:28 -27.38177 153.12659 29 ft 20 kts 208°
2026-05-06 20:28 -27.38298 153.12582 29 ft 12 kts 225°
2026-05-06 20:28 -27.38302 153.12522 29 ft 9 kts 292°
2026-05-06 20:29 -27.38280 153.12433 29 ft 11 kts 256°
2026-05-06 20:29 -27.38320 153.12406 28 ft 7 kts 178°
2026-05-06 20:29 -27.38362 153.12391 30 ft 2 kts 237°
2026-05-06 20:29 -27.38356 153.12374 27 ft 5 kts 290°
2026-05-06 20:30 -27.38336 153.12309 29 ft 7 kts 290°
2026-05-06 20:30 -27.38329 153.12288 27 ft 0 kts 289°